Location: Beaver Brook Trail
(44.0290°N, 71.8137°W)
Time: 08:11:58
(UTC+00:00)

Tiros 1 - Visible Passes

Search period start: 19 January 2026 00:00
Search period end: 29 January 2026 00:00
Orbit: 618 x 650 km, 48.4° (Epoch: 18 January)

Date Brightness Start Highest point End Pass type
(mag) Time Alt. Az. Time Alt. Az. Time Alt. Az.
19 Jan 9.0 00:06:47 10° SSW 00:08:26 19° S 00:08:26 19° S visible
19 Jan 9.2 22:49:36 10° SSE 22:51:09 12° SE 22:52:17 11° ESE visible
20 Jan 9.0 00:27:47 10° SW 00:29:42 24° SW 00:29:42 24° SW visible
20 Jan 8.4 23:08:47 10° S 23:12:26 24° SE 23:13:29 22° ESE visible
21 Jan 9.3 00:49:19 10° WSW 00:50:53 21° WSW 00:50:53 21° WSW visible
21 Jan 7.5 23:29:33 10° SW 23:33:53 44° SE 23:34:36 41° ESE visible
22 Jan 9.9 01:11:09 10° W 01:12:01 15° W 01:12:01 15° W visible
22 Jan 8.8 22:10:54 10° S 22:14:09 19° SE 22:17:25 10° E visible
22 Jan 6.9 23:50:56 10° WSW 23:55:31 78° SSE 23:55:39 77° SE visible
23 Jan 7.9 22:31:22 10° SSW 22:35:33 37° SE 22:39:15 13° E visible
24 Jan 7.5 00:12:42 10° WSW 00:16:39 60° WNW 00:16:39 60° WNW visible
24 Jan 7.2 22:52:36 10° SW 22:57:07 67° SSE 23:00:12 20° ENE visible
25 Jan 8.5 00:34:40 10° W 00:37:36 36° WNW 00:37:36 36° WNW visible
25 Jan 7.1 23:14:16 10° WSW 23:18:51 78° NNW 23:21:07 30° ENE visible
26 Jan 9.3 00:56:40 10° WNW 00:58:30 23° WNW 00:58:30 23° WNW visible
26 Jan 7.4 23:36:11 10° W 23:40:42 57° NNW 23:41:59 41° NE visible
27 Jan 9.9 01:18:34 10° WNW 01:19:22 15° WNW 01:19:22 15° WNW visible
27 Jan 7.1 22:15:51 10° WSW 22:20:25 88° NNW 22:25:02 10° ENE visible
27 Jan 7.5 23:58:11 10° W 00:02:38 49° N 00:02:50 48° N visible
28 Jan 7.3 22:37:42 10° W 22:42:14 61° NNW 22:46:17 13° ENE visible
